GFSNGP_prec_cthk_261.txt.gz
RH
26 22 20 22 26 27 31 32 42 45 41 42 45 40 38 35 35 36 40 43 46 49 52 54 64 70 72 77 74 74 72 72 70 67 65 68 69 63 60 63 61 63 63 66
34 25 22 25 29 29 28 27 32 32 41 37 35 42 40 35 35 36 38 34 37 44 47 49 47 49 59 58 63 68 71 68 70 72 76 76 71 70 70 62 60 63 65 67
45 28 29 36 28 30 31 29 32 40 42 27 30 32 33 33 36 33 37 38 39 39 41 42 42 37 37 36 42 53 59 61 62 68 73 72 71 72 70 69 67 62 58 60
50 33 56 37 25 30 31 30 29 30 28 30 32 31 33 36 37 29 32 33 35 33 29 29 30 33 32 28 28 34 44 51 49 51 56 61 66 64 69 73 74 76 73 71
53 46 36 30 28 27 28 32 31 31 32 33 32 31 50 42 31 25 26 25 25 27 29 30 32 35 32 29 30 30 31 36 41 46 47 48 52 54 56 59 64 64 66 70
54 56 48 33 27 28 32 37 35 30 31 31 29 36 42 30 23 25 25 25 23 25 31 35 37 37 38 39 34 33 32 33 33 33 39 46 42 43 47 49 47 54 62 59
54 51 37 31 31 33 39 42 35 30 30 31 34 36 29 26 24 23 24 23 25 28 33 39 40 42 42 43 43 38 38 37 36 35 34 33 35 35 34 37 39 37 40 46
51 60 52 30 35 34 37 37 32 31 33 34 35 32 31 28 26 25 23 24 28 32 37 41 46 48 48 47 44 43 42 43 44 44 43 41 38 32 29 30 30 30 31 33
40 40 35 33 35 35 36 36 35 32 34 38 34 32 30 28 26 25 25 26 29 33 38 44 49 54 54 52 53 54 56 56 53 51 49 47 43 41 39 37 36 34 33 32
39 34 36 32 35 38 35 31 36 35 38 40 33 30 28 30 29 28 27 28 30 32 36 42 49 56 63 65 65 67 69 66 62 57 50 50 48 46 45 43 41 40 39 37
35 33 33 37 36 38 38 34 36 37 40 38 29 29 31 33 33 30 28 26 29 31 32 33 37 45 59 71 76 76 76 72 68 62 57 53 51 50 52 52 50 47 48 45
36 33 36 38 39 39 40 40 39 41 43 31 29 33 34 36 34 32 30 29 29 31 32 33 32 36 43 54 76 80 80 76 70 65 60 56 52 52 55 57 60 63 58 55
33 34 37 40 41 38 39 41 43 44 41 33 34 33 35 37 39 37 34 32 31 31 30 31 32 34 39 47 54 68 72 73 69 63 60 57 55 54 55 61 70 71 71 67
29 32 36 36 38 38 36 41 45 46 35 33 33 34 39 42 43 41 36 33 31 29 28 30 32 34 38 42 48 53 64 68 66 62 58 56 57 57 60 66 68 68 68 66
29 31 33 36 36 39 41 46 45 41 37 37 37 40 44 49 50 46 43 40 36 29 30 34 36 33 38 42 47 50 54 63 64 62 58 57 57 57 63 71 74 75 75 76
30 31 33 34 36 42 45 48 45 42 40 43 42 45 51 54 52 47 44 38 34 33 33 35 34 32 36 41 46 50 49 55 62 61 58 56 57 60 68 77 79 80 83 87
30 33 34 36 37 45 49 47 43 45 45 47 46 49 53 53 47 45 42 35 34 32 32 35 33 34 37 40 46 50 49 48 58 61 59 57 59 64 75 81 83 88 95 95
28 34 36 39 43 49 54 52 47 48 46 48 48 50 46 42 42 42 34 30 27 28 29 31 31 34 38 41 45 51 51 48 52 61 59 58 62 70 83 86 90 96 94 88
30 36 40 43 48 53 58 55 54 51 49 49 51 48 43 40 40 36 31 28 27 29 32 29 30 34 40 44 47 53 53 50 52 61 61 61 65 80 88 93 96 92 86 84
36 41 44 49 52 58 58 53 57 57 59 56 50 47 43 41 38 31 27 24 26 30 30 30 32 35 40 47 50 54 54 52 53 61 61 62 72 89 94 97 92 88 86 85
47 46 48 53 57 56 57 60 63 62 57 53 49 45 42 39 33 26 24 26 22 25 28 27 32 37 41 47 53 57 56 53 55 63 63 65 82 95 97 94 89 88 88 88
58 54 53 57 59 64 65 65 64 60 57 54 48 45 41 35 33 28 27 23 22 26 24 25 32 38 43 49 56 60 57 53 57 65 64 70 92 96 97 93 92 90 91 91
62 62 61 65 68 68 68 67 65 62 57 50 46 39 33 28 27 29 24 18 21 20 19 27 35 39 44 49 58 61 57 53 58 67 66 77 96 97 97 97 97 97 97 97
65 63 65 70 72 72 74 68 62 56 50 43 39 32 28 28 24 20 21 15 14 16 18 26 35 41 44 50 59 62 58 54 60 68 67 84 98 98 98 97 98 97 97 97
67 70 74 79 79 76 70 61 57 53 45 43 38 34 30 26 22 19 16 16 13 12 18 20 26 38 44 50 61 64 59 55 63 68 67 86 98 98 97 97 97 96 94 95
75 78 79 78 75 69 65 62 56 49 43 38 36 30 24 20 18 16 15 13 13 15 15 20 23 26 38 48 64 66 61 57 65 69 67 87 97 97 97 97 97 95 91 91
79 76 76 75 72 69 62 53 45 44 39 33 29 26 23 19 17 15 14 13 12 13 13 16 21 26 33 46 64 68 63 59 67 69 68 85 97 97 97 98 98 97 92 93

GFSNGP_prec_cthk_264.txt.gz
RH
25 22 19 18 23 23 26 32 35 43 37 39 34 31 36 32 34 34 36 37 34 36 37 39 39 38 36 39 42 53 59 66 68 61 65 66 66 63 64 62 61 60 64 72
36 25 20 20 21 24 25 25 26 31 35 36 32 29 29 30 33 27 27 30 32 33 31 26 25 27 30 27 28 34 45 52 56 62 63 58 65 73 71 69 69 68 69 67
42 26 28 33 24 22 27 26 29 36 42 32 27 29 30 30 34 31 26 27 23 22 23 25 25 26 26 25 27 33 33 37 41 52 52 61 64 56 61 72 81 79 76 73
49 35 44 30 26 24 28 29 27 28 29 26 24 25 34 37 35 27 23 23 24 26 26 27 29 31 30 27 27 29 35 30 27 33 40 48 54 56 57 58 60 65 71 80
52 38 30 28 26 26 30 30 29 28 29 28 26 27 45 41 33 24 20 20 22 24 31 33 33 32 32 36 33 33 31 29 29 27 27 30 36 39 46 48 50 52 55 57
49 48 47 29 26 24 28 33 29 30 30 30 28 34 48 41 26 20 21 22 22 26 29 29 30 31 37 37 39 37 34 32 32 35 35 34 33 32 31 34 39 42 43 45
53 48 34 27 28 28 36 35 30 33 30 29 30 35 34 25 21 23 22 22 22 25 29 30 31 31 34 38 39 40 40 43 46 46 44 41 39 36 33 31 30 33 36 39
53 57 47 26 28 31 31 33 32 32 30 29 31 34 27 25 24 24 24 24 25 26 28 29 29 31 33 36 40 45 48 49 49 50 50 49 45 42 40 38 36 36 34 31
38 37 30 28 28 29 36 34 32 30 31 32 36 32 30 25 26 26 27 27 26 26 28 29 30 28 27 30 33 38 50 59 60 58 58 54 47 45 43 42 40 39 38 37
39 32 33 30 30 30 34 36 34 33 32 36 36 33 27 27 28 29 30 29 26 25 25 25 26 26 27 28 32 36 39 49 65 66 64 63 59 55 50 47 44 43 43 42
36 34 31 33 31 32 37 36 33 36 35 41 37 31 29 30 30 30 31 31 30 28 26 26 25 25 26 27 31 35 37 41 47 62 67 68 66 61 58 55 52 49 49 50
36 34 33 31 32 32 35 39 36 36 39 43 35 32 31 32 31 32 33 33 31 29 28 25 24 24 26 30 33 34 36 40 44 50 61 65 65 60 58 55 55 57 59 61
33 33 33 33 35 35 36 39 41 40 44 46 37 33 33 31 33 34 36 35 34 31 28 24 23 24 27 31 31 34 37 41 44 47 52 60 63 60 54 51 52 54 57 62
30 31 32 31 34 35 35 38 41 43 47 45 40 37 32 33 37 39 41 39 38 35 31 26 25 29 31 29 28 31 35 41 45 48 48 52 60 60 57 53 52 53 59 68
25 27 28 32 31 32 34 33 41 44 46 41 38 35 36 38 41 43 44 43 40 35 32 27 26 28 27 28 30 31 34 39 45 49 48 48 55 59 57 55 55 60 66 75
26 26 27 29 32 33 35 36 41 46 42 42 40 37 38 41 43 45 47 45 38 32 28 28 26 27 27 27 32 32 34 39 45 50 48 47 52 58 58 56 60 67 78 84
27 25 26 28 32 34 37 40 45 44 43 46 44 43 43 45 46 44 42 39 34 29 26 26 28 25 25 27 30 34 39 41 47 52 51 50 53 58 59 61 67 79 88 96
25 27 27 30 32 35 40 44 47 45 47 50 46 42 43 42 41 39 37 37 32 26 24 27 26 24 25 28 29 35 42 44 51 55 52 51 56 61 62 67 77 89 95 97
25 26 27 30 33 37 44 49 49 48 49 47 42 42 44 45 42 39 37 34 29 24 25 25 24 24 25 29 32 37 42 48 55 56 52 53 59 63 66 75 90 94 94 88
29 29 29 31 35 42 51 55 52 51 51 45 47 52 50 46 42 38 37 32 27 26 25 23 22 22 24 29 32 38 43 51 57 56 52 55 62 65 71 88 94 94 88 86
33 34 34 37 41 45 52 57 57 56 51 54 56 54 50 47 42 40 35 33 28 24 21 19 20 23 26 30 34 37 44 51 58 57 52 57 64 67 80 95 97 94 94 93
40 38 41 41 43 50 56 59 58 58 60 58 56 55 53 46 42 36 36 33 25 19 15 15 17 21 26 30 34 37 46 52 60 58 53 59 66 70 89 97 97 97 97 97
45 49 47 47 50 55 60 61 64 63 60 60 60 56 48 41 36 34 27 24 20 16 13 13 13 19 20 24 32 37 46 52 61 59 54 61 67 73 95 97 97 97 97 97
53 54 54 57 61 64 67 67 66 64 61 59 53 48 41 37 32 28 24 21 18 16 14 13 12 11 18 20 23 31 43 53 62 59 54 63 68 78 97 96 96 97 97 93
61 64 64 65 67 70 74 71 68 64 57 59 56 51 44 33 28 26 23 20 17 16 14 13 12 13 18 19 23 27 41 54 64 60 56 64 68 81 97 96 97 97 96 94
70 72 71 70 76 80 78 72 69 66 61 56 50 41 33 29 27 25 22 19 17 15 13 12 12 12 17 19 23 31 40 55 65 60 58 67 69 86 97 97 97 97 96 96
73 70 71 79 82 79 75 70 66 65 56 44 38 34 32 29 27 25 22 19 16 14 12 11 12 13 18 20 25 31 41 57 66 61 60 69 72 90 97 97 97 98 98 97

GFSNGP_prec_cthk_267.txt.gz
RH
30 24 20 20 20 27 30 29 38 38 38 39 37 36 30 30 29 28 26 29 30 28 24 24 23 23 22 22 22 24 26 35 40 42 46 43 41 51 57 59 60 59 59 57
34 26 24 20 20 20 22 27 31 31 31 32 33 31 28 27 27 25 23 20 20 20 20 19 20 23 26 26 24 24 25 24 23 25 37 42 49 42 40 44 51 53 59 68
44 26 25 31 23 20 20 22 26 29 31 32 32 30 29 27 31 28 26 18 18 18 19 20 21 24 26 28 27 27 24 24 21 19 18 28 35 37 41 40 38 42 43 48
51 35 42 22 24 22 20 22 26 30 31 31 30 31 27 30 35 32 21 20 21 19 21 22 25 26 24 26 28 28 25 21 20 20 22 25 27 29 33 36 41 42 41 39
50 50 30 25 24 22 22 24 28 29 30 29 27 28 32 33 37 31 20 21 19 18 21 21 22 20 23 24 24 25 25 27 28 28 29 31 31 31 32 31 29 34 39 43
53 56 51 31 22 22 24 32 28 29 29 29 27 31 35 35 35 24 21 20 18 18 20 20 20 20 21 23 24 26 27 30 33 35 38 36 36 37 35 34 30 30 32 38
56 51 38 28 23 23 33 28 24 26 27 28 29 28 33 35 32 22 22 22 21 21 23 23 23 22 22 21 22 23 25 27 32 38 42 46 44 43 41 37 36 36 34 34
56 59 51 24 24 25 25 24 25 27 28 29 30 30 32 31 25 23 24 24 23 23 24 27 25 24 23 23 22 22 23 26 28 32 34 40 52 53 48 48 45 43 40 39
42 40 30 28 25 26 26 25 27 28 29 29 30 30 30 26 25 25 25 25 25 25 26 26 26 25 23 22 23 23 23 26 27 29 32 35 38 53 60 59 54 49 47 46
37 30 29 29 27 27 28 27 28 31 30 28 30 32 31 29 27 26 25 26 27 26 26 26 24 23 23 23 24 24 24 25 26 28 30 33 39 45 60 65 63 59 55 52
36 32 31 31 29 29 29 29 29 31 31 32 35 34 34 30 28 27 27 28 27 27 27 25 23 20 22 22 24 24 23 24 26 28 31 33 36 41 50 63 66 64 58 54
36 31 32 31 31 31 31 31 31 32 34 36 38 36 35 31 28 28 29 29 30 31 31 29 26 23 23 23 26 26 24 24 25 28 31 35 37 39 44 52 62 64 59 56
29 30 31 32 31 32 31 32 33 34 35 37 38 38 36 32 29 29 30 33 35 35 34 31 27 23 23 24 24 24 25 26 26 28 32 37 41 45 42 42 53 58 58 57
32 30 30 29 30 30 32 33 34 35 37 39 41 40 37 32 30 33 35 37 38 37 36 31 27 25 25 24 22 21 23 27 30 32 36 41 47 49 47 47 48 52 56 56
33 30 28 28 29 32 31 33 35 37 38 41 41 40 40 33 34 36 38 40 40 39 36 30 25 25 25 24 23 23 24 28 32 34 39 46 52 51 49 51 53 57 57 59
27 27 27 27 28 27 28 30 33 36 39 40 41 43 44 36 37 38 39 40 39 37 32 30 26 25 25 24 22 24 25 28 33 36 42 49 53 51 50 54 56 60 63 68
32 28 25 25 25 27 28 30 32 35 38 39 41 43 40 39 39 40 39 36 35 33 31 30 26 26 24 23 23 24 28 30 33 37 44 52 54 50 52 58 61 65 70 80
33 30 29 25 26 28 29 30 34 38 40 40 41 44 44 41 40 37 37 37 35 33 31 28 27 27 24 22 23 24 27 31 33 38 44 52 55 51 55 60 66 72 82 90
34 31 28 27 26 30 33 34 36 40 40 41 44 48 45 40 39 39 39 38 36 34 31 26 26 23 21 22 25 27 30 31 33 38 45 53 53 51 58 63 70 82 92 94
37 34 30 27 28 29 31 33 36 41 43 45 48 50 44 44 44 42 42 39 37 34 28 24 21 18 18 20 22 26 29 30 34 39 45 54 54 52 60 65 76 92 95 96
38 37 33 28 28 30 33 36 38 44 48 50 50 47 50 50 48 46 44 40 37 31 26 21 18 15 15 19 21 20 23 26 31 40 47 55 54 53 61 67 84 94 95 96
37 36 33 31 32 36 39 41 46 50 54 55 52 55 55 52 51 47 41 36 32 27 22 19 17 15 14 16 19 18 19 23 26 38 47 57 55 55 62 70 90 95 95 96
39 37 37 39 40 42 45 50 54 58 59 56 60 59 57 54 49 43 36 31 26 23 21 19 17 16 16 13 15 18 19 20 26 37 48 58 56 58 65 75 93 95 96 96
45 45 45 47 49 51 53 56 59 59 61 64 63 61 55 48 44 40 35 29 26 23 21 19 17 15 14 13 15 16 17 21 28 39 49 59 57 61 68 82 94 95 96 94
49 49 49 53 55 56 58 60 62 68 67 66 63 57 51 47 43 37 31 28 26 23 21 18 16 15 14 13 13 17 17 23 30 41 50 60 58 63 70 88 95 96 96 95
56 57 59 59 60 62 64 68 72 70 69 68 64 57 50 45 40 34 31 28 26 24 21 18 16 14 14 15 14 16 19 26 33 43 52 61 59 67 74 94 96 97 97 97
70 67 64 64 65 69 73 75 74 74 69 64 59 53 49 44 39 35 32 29 26 23 20 18 15 13 13 16 16 17 21 28 35 44 54 62 61 69 80 96 96 97 97 97

GFSNGP_prec_cthk_270.txt.gz
RH
28 23 25 27 24 28 30 27 40 31 36 33 31 32 31 30 27 25 22 19 18 18 17 16 16 19 22 23 21 19 18 18 17 16 19 22 27 32 32 30 28 28 29 36
36 28 26 24 23 25 27 26 27 29 31 28 29 31 30 30 27 23 22 22 17 17 15 15 18 20 22 23 21 20 19 17 15 14 14 15 15 16 22 26 28 30 31 27
36 30 27 30 22 19 21 25 23 28 28 29 29 29 30 31 27 25 27 24 17 15 15 17 19 20 20 20 21 20 20 19 19 19 18 18 18 17 17 16 18 24 28 29
48 32 34 21 20 20 18 19 21 23 26 27 29 30 32 30 25 30 30 20 17 16 16 19 19 18 18 18 18 17 18 19 20 21 22 23 24 23 22 21 20 19 19 24
45 45 28 21 20 21 21 20 19 24 27 29 32 32 32 29 26 32 31 17 18 17 18 20 19 18 17 17 16 16 15 17 18 18 18 20 22 25 26 26 24 23 23 23
52 48 38 23 20 20 22 27 18 23 26 29 29 35 32 30 28 33 26 19 20 19 20 21 21 21 21 20 18 15 14 15 17 19 20 20 21 21 21 24 28 30 29 31
53 48 33 23 25 23 31 24 18 21 25 28 27 27 29 29 29 32 24 21 22 21 22 24 24 24 24 22 19 19 19 19 19 21 19 19 19 20 21 23 26 33 39 40
54 54 44 21 25 24 22 20 20 22 25 27 27 28 29 30 29 29 23 23 24 23 24 25 25 24 22 20 18 20 21 20 20 21 22 22 22 22 25 27 29 32 40 48
41 37 26 25 24 22 21 21 21 21 23 26 28 29 30 30 29 28 23 24 24 25 26 26 25 22 19 18 18 21 21 21 21 21 21 22 23 24 26 28 30 31 35 47
34 26 26 27 26 23 22 23 22 22 24 27 30 31 32 29 30 26 24 25 25 25 25 25 24 22 20 20 21 21 21 21 22 22 21 22 24 25 28 32 34 35 37 42
34 29 27 27 28 26 25 25 26 25 27 30 32 32 29 30 30 27 25 25 26 25 26 27 27 25 22 22 23 22 20 20 20 22 22 23 24 27 30 36 41 42 43 44
34 27 29 28 29 29 28 27 27 27 28 28 29 30 31 32 33 29 26 27 28 28 29 30 30 28 24 23 23 22 20 19 20 21 23 24 25 27 33 40 45 47 49 50
29 28 31 32 32 30 29 29 29 28 28 29 32 33 33 34 35 30 28 29 31 31 32 33 32 30 26 25 24 21 20 20 22 22 24 25 27 30 32 40 44 44 48 51
36 34 36 33 32 32 32 32 30 30 30 31 34 35 36 36 37 31 28 32 33 34 34 34 34 30 27 26 25 22 20 21 22 24 26 27 30 35 41 45 41 40 50 54
41 38 34 34 33 32 32 32 31 31 32 34 35 37 38 40 37 30 33 35 36 36 36 36 33 30 29 27 25 19 20 21 22 25 27 29 33 36 43 46 46 47 51 57
35 38 38 35 32 30 30 32 32 31 33 34 36 39 41 42 40 38 36 38 38 37 35 33 31 31 28 26 25 24 23 22 23 24 27 30 33 37 45 48 47 51 56 64
38 35 33 34 33 33 30 30 33 34 34 36 38 41 41 42 44 42 37 40 40 34 33 33 32 29 25 25 24 23 23 24 24 24 26 31 35 40 47 50 50 54 61 71
40 37 35 33 33 32 30 30 31 31 30 33 37 41 43 45 44 37 41 40 36 36 35 34 32 29 27 24 23 22 23 22 23 23 25 29 36 42 49 51 52 57 63 78
38 41 42 41 37 32 30 29 29 30 32 36 40 44 47 42 39 41 40 40 39 39 38 35 30 27 23 20 20 20 15 21 19 20 23 25 34 42 50 52 54 60 71 87
43 43 45 42 36 34 33 30 30 32 35 37 40 42 40 42 41 41 43 44 44 43 40 33 29 24 20 18 16 14 15 18 17 20 20 23 34 42 51 54 57 63 81 92
40 42 43 41 38 38 36 33 32 34 36 40 41 44 45 46 43 45 49 49 48 44 35 30 26 23 20 18 16 15 14 15 19 19 19 26 35 43 52 55 58 69 88 93
34 40 42 42 41 40 39 34 33 36 39 44 49 48 47 46 48 54 54 51 46 38 33 29 25 22 21 19 17 15 15 15 18 18 22 29 38 44 53 56 61 75 92 94
33 39 43 42 40 41 42 38 37 40 45 51 51 51 52 53 58 57 53 47 41 37 32 28 25 22 21 18 17 15 15 16 17 19 25 31 39 46 55 58 64 83 93 94
36 39 43 44 42 40 41 42 44 48 53 56 58 56 57 61 58 52 47 43 40 35 31 28 25 23 21 18 17 16 15 16 17 20 27 33 40 48 57 60 69 90 94 95
40 44 46 46 45 45 47 50 53 56 60 60 56 61 63 60 53 49 45 42 39 34 31 29 26 23 20 17 17 17 17 17 19 22 27 34 42 48 58 62 75 93 94 96
46 50 53 55 55 56 57 57 58 61 60 58 65 67 63 55 51 49 46 43 39 35 32 29 26 23 19 16 14 17 17 17 19 22 27 36 43 49 59 65 81 95 96 97
54 58 62 63 62 64 66 65 64 63 65 73 70 64 57 54 54 52 48 43 38 34 30 27 25 21 17 15 14 14 16 17 20 23 29 38 44 50 61 68 87 96 97 97

GFSNGP_prec_cthk_276.txt.gz
RH
25 24 21 21 28 30 25 22 24 19 24 22 23 23 21 22 22 22 23 20 16 16 13 12 13 14 13 13 14 13 13 12 12 12 12 12 12 13 12 11 10 10 10 10
34 26 23 23 26 28 26 25 25 24 28 20 22 23 23 23 23 24 25 23 20 17 12 11 13 13 13 13 13 13 12 11 10 10 10 10 11 10 10 10 10 9 9 9
40 32 27 31 22 26 25 23 21 24 18 20 22 25 23 23 23 24 26 24 22 19 13 12 14 14 15 15 15 14 12 11 11 10 10 9 9 9 9 9 9 9 9 10
45 33 42 23 17 19 21 21 20 18 18 19 21 21 23 23 23 25 26 25 25 21 13 14 16 16 17 17 16 14 13 12 11 12 11 11 10 9 8 8 9 10 10 11
46 46 25 17 17 19 21 19 18 18 18 17 20 21 22 23 24 25 26 25 25 21 14 16 17 18 19 18 18 15 13 12 12 12 11 11 10 10 11 12 11 12 13 14
53 40 33 17 18 18 18 21 15 15 17 19 20 25 22 22 24 26 27 26 25 22 16 17 18 19 19 19 17 15 14 14 14 13 12 11 11 13 15 16 16 17 18 20
57 47 32 19 21 20 26 19 17 15 16 18 18 16 19 23 25 26 28 27 25 23 17 18 18 19 19 18 17 16 15 15 15 15 14 13 12 13 15 15 15 16 16 19
52 51 34 19 21 23 21 19 19 16 16 17 16 17 20 23 25 27 28 27 26 23 18 19 20 20 19 19 18 18 17 17 16 15 14 12 12 12 15 15 15 15 16 17
41 38 27 24 22 21 23 21 19 18 18 18 17 18 21 24 26 28 29 29 27 23 20 20 21 21 21 20 20 20 19 18 17 16 14 13 14 14 15 15 16 17 19 20
42 34 32 28 25 25 25 24 21 20 20 18 18 19 22 25 27 28 30 30 27 24 21 21 22 23 23 22 22 22 22 20 18 17 14 13 13 15 15 16 17 19 21 23
43 37 33 30 29 27 25 25 24 22 22 20 20 22 24 26 27 29 31 31 26 24 22 22 24 26 25 24 24 24 23 21 19 17 15 15 14 15 15 16 18 21 24 27
43 33 33 30 25 25 25 25 25 24 23 22 23 24 25 26 28 30 31 28 26 25 24 24 27 27 27 27 27 26 25 22 20 17 16 16 15 14 12 12 15 21 26 30
34 30 29 29 30 28 26 27 27 26 25 25 24 25 27 28 30 29 28 29 29 27 25 26 28 29 30 30 29 29 26 22 20 17 15 14 15 16 16 10 14 19 24 29
40 35 32 30 27 28 29 29 30 30 29 28 27 28 29 30 30 31 31 32 33 30 28 27 28 30 32 31 31 30 26 22 21 18 15 14 16 20 20 18 18 19 23 30
45 39 35 32 30 29 30 30 31 31 30 30 31 31 31 31 33 33 34 35 35 32 29 28 29 31 32 32 32 31 27 23 21 19 19 15 15 20 20 19 20 23 25 29
53 46 40 36 33 31 32 32 31 32 33 34 35 34 34 34 34 35 37 38 37 35 31 31 30 31 32 34 34 32 26 23 21 19 18 16 15 21 20 19 22 25 29 35
56 53 45 40 38 37 35 34 34 35 35 35 35 40 38 35 35 36 37 40 41 39 38 34 29 29 34 35 35 31 27 25 22 19 17 16 15 22 20 21 25 28 31 38
49 54 53 46 40 40 39 38 39 38 36 35 37 37 40 39 36 37 38 41 41 41 40 32 27 30 36 37 34 30 28 25 22 20 18 17 15 20 21 22 26 30 32 38
51 48 51 52 47 41 38 39 40 39 38 37 37 38 40 40 43 42 40 43 42 41 37 29 28 34 38 37 33 31 29 25 22 20 19 18 16 22 21 22 28 32 35 41
54 46 49 50 52 49 46 44 42 41 38 37 36 36 37 38 39 39 46 48 43 39 32 29 32 37 39 36 34 32 29 25 23 21 19 18 21 23 20 23 29 32 36 44
47 48 43 46 48 50 49 45 44 41 39 38 37 37 37 38 40 42 46 45 42 34 32 31 36 39 38 36 35 32 29 26 24 21 20 18 24 23 21 24 29 33 38 45
45 46 46 51 50 49 51 48 45 46 47 47 46 47 49 50 48 51 52 47 39 38 34 37 41 39 38 37 34 32 29 26 24 21 20 19 22 23 21 24 29 33 38 47
43 43 46 49 48 45 44 44 45 47 50 49 47 49 51 51 47 48 49 47 45 38 38 43 41 39 38 37 36 33 29 28 24 22 19 19 20 24 22 25 30 34 40 47
37 39 41 41 41 40 39 38 43 49 49 50 53 55 56 57 61 62 55 46 40 42 45 44 42 41 41 40 37 33 30 27 24 21 19 18 21 23 22 24 31 36 42 49
35 36 37 38 40 40 38 38 42 48 50 54 55 56 57 59 59 58 54 51 48 48 46 44 44 44 43 40 36 32 29 26 23 21 18 18 19 21 21 25 33 38 43 52
35 36 38 42 43 43 40 39 42 47 51 55 58 60 62 61 60 57 55 50 50 50 47 47 49 47 43 40 35 31 28 25 22 20 17 17 18 22 22 26 33 39 45 54
42 43 42 46 49 49 46 46 47 51 55 58 61 64 64 59 55 53 50 53 54 51 52 53 51 47 44 39 34 30 27 24 21 18 16 16 17 21 22 26 33 40 47 57